Regional Weather Roundup
Issued by NWS

Home | Current Version | Previous Version | Text Only | Print | Product List | Glossary Off
Versions: 1 2 3 4 5 6 7 8 9 10 11 12 13 14 15 16 17 18 19 20 21 22 23 24 25 26 27 28 29 30 31 32 33 34 35 36 37 38 39 40 41 42 43 44 45 46 47 48 49 50

000
ASUS43 KDTX 212310
RWRMI
MICHIGAN HOURLY REGIONAL WEATHER ROUNDUP
NATIONAL WEATHER SERVICE DETROIT/PONTIAC MI
700 PM EDT THU AUG 21 2014

NOTE: "FAIR" INDICATES FEW OR NO CLOUDS BELOW 12,000 FEET WITH NO
SIGNIFICANT WEATHER AND/OR OBSTRUCTION TO VISIBILITY.

MIZ047>049-052>055-059>063-066>070-074>076-081>083-220000-
SOUTHEAST LOWER MICHIGAN

CITY           SKY/WX    TMP DP  RH WIND       PRES   REMARKS
ADRIAN         CLOUDY    78  70  76 W8        29.99R
ALMA           CLOUDY    75  68  78 E5        29.96S
ANN ARBOR      LGT RAIN  75  70  84 SW5       29.95F
BAD AXE        CLOUDY    68  65  92 NE3       30.00S
DETROIT CITY   CLOUDY    79  68  69 S8        29.96S
DETROIT        CLOUDY    79  70  74 SW9       29.96S
FLINT          CLOUDY    80  67  64 N5        29.96F
GROSSE ILE     CLOUDY    75  72  88 S5        29.94F FOG
HILLSDALE      PTSUNNY   78  73  85 W5        30.00R
HOWELL         CLOUDY    77  70  77 CALM      29.96F

CITY           SKY/WX    TMP DP  RH WIND       PRES   REMARKS
JACKSON        CLOUDY    75  71  87 CALM      29.97S
LAMBERTVILLE   CLOUDY    79  70  73 SW3       29.97F
LANSING        CLOUDY    77  69  76 CALM      29.97S
LAPEER         NOT AVBL
MASON          CLOUDY    73  69  87 S5        29.97R
MONROE         LGT RAIN  79  72  78 W6        29.94F
MT. CLEMENS    CLOUDY    75  67  75 NE6       29.95S
PONTIAC        CLOUDY    78  67  68 W6        29.96F
PORT HOPE        N/A     67  62  84 E6        29.99R
PORT HURON     PTSUNNY   75  70  83 CALM      29.97S
TRI CITIES     CLOUDY    75  66  73 NE7       29.97F
YPSILANTI      CLOUDY    82  70  66 SW5       29.96F
$$
MIZ043>046-050>051-056>058-064>065-071>073-077>080-220000-
SOUTHWEST LOWER MICHIGAN

CITY           SKY/WX    TMP DP  RH WIND       PRES   REMARKS
BATTLE CREEK   CLOUDY    77  70  79 W7        29.98S
BENTON HARBOR  CLOUDY    76  73  91 S6        29.93F
BIG RAPIDS     CLOUDY    73  68  84 SE6       29.96S
COLDWATER      PTSUNNY   78  70  76 SW6       29.98S
HOLLAND        CLOUDY    75  70  84 CALM      29.96F
GRAND RAPIDS   CLOUDY    78  73  84 W5        29.96S
KALAMAZOO      CLOUDY    77  70  79 SW5       29.97F
MARSHALL       CLOUDY    76  71  84 SW3       29.96F
MUSKEGON       CLOUDY    76  70  82 SW7       29.95S
$$
MIZ016>042-220000-
NORTHERN LOWER MICHIGAN

CITY           SKY/WX    TMP DP  RH WIND       PRES   REMARKS
ALPENA         PTSUNNY   67  63  87 E6        29.99F
BEAVER ISLAND  MOSUNNY   72  63  72 E5        29.98S
BELLAIRE       MOSUNNY   74  62  68 CALM      29.95F
CADILLAC       CLOUDY    73  65  76 CALM      29.97F
CHARLEVOIX     MOSUNNY   70  62  76 N6        30.00F
FRANKFORT      CLOUDY    75  64  69 NE3       29.94R
GAYLORD        MOSUNNY   72  60  66 CALM      29.99F
GRAYLING       PTSUNNY   74  61  63 NE5       29.99F
HARBOR SPRINGS MOSUNNY   74  63  67 NE5       29.97F
HOUGHTON LAKE  CLOUDY    75  62  64 CALM      29.98F
MANISTEE       CLOUDY    73  64  73 CALM      29.95S
OSCODA         CLOUDY    68  63  83 SE6G25    29.99R
PELLSTON       MOSUNNY   72  64  76 NE7       29.98F
TRAVERSE CITY  PTSUNNY   72  64  76 N9        29.94F
$$
MIZ007>008-015-220000-
EASTERN UPPER MICHIGAN

CITY           SKY/WX    TMP DP  RH WIND       PRES   REMARKS
KINROSS        CLOUDY    72  66  83 CALM      29.98S
MACKINAC ISLAN SUNNY     69  63  80 CALM      29.98S
NEWBERRY       CLOUDY    72  61  66 SW9       29.98S
S. S. MARIE    PTSUNNY   70  62  76 W5        29.97S
$$
MIZ004>006-011>014-085-220000-
CENTRAL UPPER MICHIGAN

CITY           SKY/WX    TMP DP  RH WIND       PRES   REMARKS
MANISTIQUE     SUNNY     67  63  84 S3        29.97F
ESCANABA       MOSUNNY   66  61  82 SE6       29.96F
MENOMINEE      CLOUDY    70  61  73 E5        29.95S
SAWYER-GWINN   MOSUNNY   70  63  78 S9        29.97S
$$
MIZ001>003-009>011-084-220000-
WESTERN UPPER MICHIGAN

CITY           SKY/WX    TMP DP  RH WIND       PRES   REMARKS
IRON MOUNTAIN  CLOUDY    68  64  87 SE7       29.95F
HOUGHTON       FOG       59  57  93 E10       29.95R VSB 1
COPPER HARBOR    N/A     62  57  83 SE6       29.95S
IRONWOOD       CLOUDY    72  66  83 SE7       29.88S
$$

ABBREVIATIONS USED IN REMARKS
   TC - TEMPERATURE IN CELSIUS
  WCI - WIND CHILL INDEX
   HX - HEAT INDEX
  VSB - VISIBILITY



USA.gov is the U.S. government's official web portal to all federal, state and local government web resources and services.